www.pogodaiklimat.ru

Погода и климат >> Архив погоды >> Россия >> Амурская область >> Шимановск


ПОГОДА в Шимановске

  • Прогноз погоды в Шимановске
  • Монитор погоды в Шимановске

АРХИВ ПОГОДЫ в Шимановске

Время (UTC), дата Ветер
(напр.,м/с)
 
Видим.   Явления Облачность Т
(С)
Тd
(С)
f
(%)
Тe
(С)
Тes
(С)
Комфортность P
(гПа)
Po
(гПа)
Тmin
(С)
Tmax
(С)
R
(мм)
R24
(мм)
S
(см)
21 8.09 СЗ 4 50 км 10/5 600 м
[Cb cap Cs]
+7.5 +5.0 84 +4 +4 998.7 965.4
00 9.09 С 4 50 км 9/3 600 м
[Cb cap Ac trans Ci fib]
+10.2 +4.6 68 +8 +9 999.2 966.1 +7.1 1
03 9.09 З 3 50 км 10/6 600 м
[Cb cap Ac trans]
+13.7 +4.9 55 +13 +14 999.6 967.0
06 9.09 С 3 50 км 10/6 600 м
[Cb cap Ac trans]
+13.9 +6.7 62 +13 +14 1000.9 968.2
09 9.09 СВ 3 50 км 10/8 600 м
[Cb cap Ac trans Ci fib]
+13.2 +6.3 63 +12 +12 1002.9 970.1
12 9.09 штиль 0 н/о 10/4 600 м
[Cb cap Ac trans Ci fib]
+8.1 +6.9 92 +7 +7 1006.2 972.7 +14.2
15 9.09 СВ 2 н/о 10/6 600 м
[Cb cap Ac trans]
+9.3 +8.1 92 +8 +8 1008.1 974.7
18 9.09 В 2 н/о 10/8 600 м
[Sc diur, vesp Ac trans]
+8.0 +5.8 86 +6 +6 1010.8 977.1
21 9.09 СВ 2 50 км 10/10 600 м
[St]
+7.0 +5.7 91 +5 +5 1013.4 979.5
00 10.09 В 3 50 км 3/3 600 м
[Cb calv]
+10.8 +5.9 72 +9 +11 1014.9 981.4 +6.5
03 10.09 В 3 50 км 3/3 600 м
[Cu hum]
+14.5 +1.7 42 +14 +19 1015.3 982.2
06 10.09 З 3 50 км 6/6 600 м
[Cb calv]
+15.6 +4.5 48 +15 +17 1015.1 982.1
09 10.09 штиль 0 50 км 8/8 600 м
[Cb calv]
+14.3 +6.7 60 +14 +14 1016.2 983.1
12 10.09 штиль 0 н/о 10/6 600 м
[Cb calv Ac trans]
+10.4 +6.8 78 +10 +10 1017.9 984.3 +16.2
15 10.09 штиль 0 н/о 3/3 600 м
[Cb calv]
+4.4 +3.7 95 +3 +3 1019.0 984.6
18 10.09 штиль 0 н/о ясно +2.0 +1.5 96 +1 +1 1019.4 984.7
21 10.09 штиль 0 50 км 4/4
[Cb calv]
+2.5 +2.0 96 +1 +1 1020.1 985.4
00 11.09 штиль 0 50 км ясно +11.0 +6.3 73 +11 +16 1018.9 985.3 +1.6
03 11.09 З 3 50 км 6/0
[Ci fib]
+17.5 +5.3 45 +18 +24 1017.7 984.9
06 11.09 З 3 50 км 10/3 1000 м
[Cu hum Ci fib]
+18.5 +4.3 39 +19 +22 1016.5 983.8
09 11.09 З 2 50 км 8/1 600 м
[Sc diur, vesp Ci fib]
+17.2 +5.4 46 +18 +18 1016.3 983.5
12 11.09 штиль 0 н/о 3/0
[Ci fib]
+7.1 +5.5 90 +6 +6 1017.7 983.7 +18.9
15 11.09 штиль 0 н/о 4/0
[Ac trans Ci fib]
+6.4 +5.5 94 +5 +5 1017.4 983.3
18 11.09 ЮВ 1 н/о 10/0
[As op]
+11.0 +5.8 70 +11 +11 1015.3 981.8
21 11.09 ЮЗ 2 50 км 10/0
[Ac trans Ci fib]
+11.3 +5.7 68 +10 +10 1014.5 981.0
00 12.09 Ю 4 50 км 8/0
[Ac trans Ci fib]
+14.8 +7.8 63 +14 +16 1013.2 980.3 +6.1
03 12.09 Ю 3 50 км 6/0
[Ci fib]
+19.5 +9.1 51 +21 +27 комфорт 1011.5 979.2
06 12.09 Ю 4 50 км 8/0
[Ac trans Ci]
+22.4 +10.2 46 +24 +28 комфорт 1009.3 977.4
09 12.09 Ю 4 50 км 4/0
[Ci fib]
+21.9 +12.4 55 +24 +25 комфорт 1007.6 975.6
12 12.09 Ю 4 н/о 8/0
[Ci fib]
+17.6 +10.5 63 +17 +17 1007.6 975.2 +24.4
18 12.09 ЮВ 4 н/о 10/0
[Ac trans Cs]
+14.3 +8.3 67 +13 +13 1004.3 971.6
21 12.09 Ю 5 50 км 10/6 600 м
[Sc Ac trans]
+13.2 +8.6 74 +11 +11 1002.1 969.3
00 13.09 Ю 5
{12}
50 км 10/8 600 м
[Sc diur, vesp Ac trans]
+14.0 +8.9 71 +12 +13 999.3 966.7 +13.2
03 13.09 Ю 5 20 км ливневой дождь 10/10 600 м
[Cb cap]
+12.7 +11.8 94 +10 +10 998.2 965.5
06 13.09 З 4
{11}
20 км ливневой дождь 10/10 600 м
[Cb cap]
+13.4 +12.3 93 +12 +12 998.5 965.9
09 13.09 З 5
{14}
50 км {ливн. осадки} 10/8 600 м
[Cb cap Ac trans Ci fib]
+12.3 +5.4 63 +10 +10 1002.3 969.4
12 13.09 СЗ 3
{10}
н/о {ливн. осадки} 10/3 600 м
[Cb cap Ac trans Ci fib]
+9.5 +4.6 71 +7 +7 1005.6 972.3 +14.0 7
15 13.09 СЗ 3 н/о 6/0
[Ac trans Ci fib]
+8.4 +2.5 66 +6 +6 1007.2 973.6
18 13.09 СЗ 2 н/о 3/0
[Ac trans]
+3.8 +2.6 92 +1 +1 1009.0 974.9
21 13.09 штиль 0 50 км 3/0
[Ac trans]
+1.0 +0.5 96 -0 -0 1010.8 976.2
00 14.09 СЗ 3 50 км ясно +10.2 +0.8 52 +8 +11 1010.9 977.4 +0.8
03 14.09 С 1 50 км ясно +15.6 +2.2 40 +16 +27 1009.7 976.9
06 14.09 З 2 50 км 4/3 600 м
[Cu hum Ci fib]
+17.4 +3.1 38 +18 +22 1008.3 975.8
09 14.09 З 2 50 км 9/9 600 м
[Cb calv]
+15.5 +6.2 54 +16 +16 1008.0 975.3
12 14.09 З 2 н/о 9/4 600 м
[Cb calv Ci fib]
+12.6 +7.0 69 +12 +12 1008.2 975.1 +17.7
15 14.09 Ю 2 н/о 8/4 600 м
[Cb calv Ci fib]
+11.3 +6.1 70 +10 +10 1006.6 973.5
18 14.09 Ю 2 н/о 8/4 600 м
[Cb calv Ci fib]
+7.8 +5.1 83 +6 +6 1005.4 971.9
21 14.09 Ю 1 50 км 10/4 600 м
[Cb calv Ac trans Ci fib]
+8.0 +5.8 86 +7 +7 1003.7 970.2
00 15.09 Ю 3 50 км {ливн. осадки} 10/5 600 м
[Cb calv Ac trans Ci]
+10.3 +9.1 92 +8 +9 1002.1 969.0 +6.6 0.3
03 15.09 З 2 20 км ливневой дождь 10/6 600 м
[Cb calv Ac As]
+11.7 +10.9 95 +10 +11 999.9 967.0
06 15.09 ЮЗ 3 50 км в посл. час ливневой дождь 10/3 600 м
[Cb calv Ac As]
+11.3 +9.9 91 +9 +10 998.3 965.5
09 15.09 З 4
{17}
50 км {ливн. осадки} 6/4 600 м
[Cb calv Ci fib]
+5.8 +1.6 74 +2 +2 1002.8 969.1
12 15.09 СВ 2 н/о {ливн. осадки} ясно +0.8 0.0 94 -3 -3 1005.9 971.4 +13.0 8
15 15.09 ЮЗ 5
{10}
н/о 1/1 600 м
[Cb calv]
+3.4 -3.0 63 -1 -1 1005.4 971.3
18 15.09 Ю 3
{14}
н/о 10/3 600 м
[Cb calv Cs]
+2.8 -3.7 62 -1 -1 1005.3 971.1

 

Местоположение метеостанции Шимановск (Амурская область, Россия): широта 51.98 долгота 127.60 высота над уровнем моря 281 м.

В архиве по умолчанию представлена погода в Шимановске за последнюю неделю. Архивные данные за месяц целиком и за предыдущие месяцы, начиная с января 2011 года, Вы можете получить, выбрав интересующий диапазон дат из раскрывающегося списка и нажав кнопку "Ввод!".


*Определитесь, кто Вы:
робот инопланетянин человек

Внимание! Время в таблицах - всемирное. Для получения местного времени необходимо прибавить поправку, которая равна 9 ч.

Смотрите также архив погоды в соседних городах и на ближайших метеорологических станциях:

Погода в Саскале (Амурская область, Россия) (61 км)
Погода в Свободном (Амурская область, Россия) (68 км)
Погода в Хума (Хэйлунцзян, Китай) (71 км)
Погода в Мазаново (Амурская область, Россия) (91 км)
Погода в Белогорске (Амурская область, Россия) (130 км)
Погода в Октябрьский Прииск (Амурская область, Россия) (132 км)
Погода в Сергеевке (Амурская область, Россия) (135 км)
Погода в Черняево (Амурская область, Россия) (140 км)
Погода в Тыгде (Амурская область, Россия) (152 км)
Погода в Норске (Амурская область, Россия) (162 км)

Пояснения к столбцам:

Ветер - указаны скорость ветра в м/с - средняя за 10 мин, порывы в срок и между сроками (в фигурных скобках) и направление, откуда дует ветер: С - северный, СВ - северо-восточный, В - восточный, ЮВ - юго-восточный, Ю - южный, ЮЗ - юго-западный, З - западный, СЗ - северо-западный.
Видимость - горизонтальная дальность видимости в метрах или километрах. При видимости от 1 до 10 км при отсутствии осадков обычно наблюдается дымка, при ухудшении видимости до 1 км и менее - туман. В сухую погоду видимость может ухудшаться дымом, пылью или мглою.
Явления - указаны атмосферные явления, наблюдавшиеся в срок или в последний час перед сроком; фигурными скобками обозначены явления, наблюдавшиеся между сроками (за 1-3 часа до срока); квадратными скобками обозначены град или гололедные отложения с указанием их диаметра в мм.
Облачность - указаны через наклонную черту общая и нижняя облачность в баллах и высота нижней границы облаков в метрах; квадратными скобками обозначены формы облаков: Ci - перистые, Cs - перисто-слоистые, Cc - перисто-кучевые, Ac - высококучевые, As - высокослоистые, Sc - слоисто-кучевые, Ns - слоисто-дождевые, Cu - кучевые, Cb - кучево-дождевые. Подробнее классификацию облаков см. в Атласе облаков (PDF).
T - Температура воздуха - температура, измеренная на высоте 2 м над землей.
Td - Температура точки росы - температура, при понижении до которой содержащийся в воздухе водяной пар достигнет насыщения.
f - Относительная влажность воздуха - влажноcть воздуха, измеренная на высоте 2 м над землей.
Te - Эффективная температура - температура, которую ощущает одетый по сезону человек в тени. Характеристика душности погоды. При расчете учитывается влияние влажности воздуха и скорости ветра на теплоощущения человека.
Tes - Эффективная температура на солнце - температура, которую ощущает человек, с поправкой на солнечный нагрев. Характеристика знойности погоды. Зависит от высоты солнца над горизонтом, облачности и скорости ветра. Ночью, в пасмурную погоду, а также при ветре 12 м/с и более поправка равна нулю.
P - Атмосферное давление - приведенное к уровню моря атмосферное давление.
Po - Атмосферное давление - измеренное на уровне метеостанции атмосферное давление.
Tmin - Минимальная температура - минимум температуры воздуха на высоте 2 м над землей.
Tmax - Максимальная температура - максимум температуры воздуха на высоте 2 м над землей.
R - Количество осадков - Количество выпавших осадков за период времени, мм. При наведении курсора мыши на число - период времени, за который выпало указанное количество осадков.
R24 - Количество осадков - Количество выпавших осадков за 24 часа, мм.
S - Снежный покров - Высота снежного покрова, см. При наведении курсора мыши на число - состояние снежного покрова и степень покрытия местности в баллах.